weather.gov     
National Weather Service

Terminal Aerodrome Forecast
NWS Homepage
This page is being discontinued on March 12, 2014.
The same data is available at this site. Please update your bookmarks.
Thank you, and we apologize for the inconvenience.
Please send an email to SR-SRH.Webmaster@noaa.gov with any concerns.


Current Version
Previous Version:    01  02  03  04  05  06  07  08  09  10  11  12  13  14  15  16  17  18  19  20  21  22  23  24  25  26  27  28  29  30  
   31  32  33  
[Printable]
313
FTUS46 KSTO 221100 RRA
TAFSMF
TAF
KSMF 221147Z 2212/2312 32005KT P6SM FEW005 SCT012
      TEMPO 2212/2216 3SM BR OVC012
     FM221600 33007KT P6SM BKN015
     FM221800 33011KT P6SM SCT015 SCT250
     FM230700 33007KT 6SM BR SKC
     FM230900 33004KT 2SM BR SCT005 SCT250=


U.S. Dept. of Commerce
NOAA National Weather Service
1325 East West Highway
Silver Spring, MD 20910
E-mail: w-nws.webmaster@noaa.gov
Page last modified: May 16, 2007
NATIONAL WEATHER SERVICE: for Safety, for Work, for Fun - FOR LIFE